Weather History for Clarksburg, WV

Change the Weather History Date:

Tuesday, December 10, 2013

  Actual Average Record
Temperature  
Mean Temperature 29 °F -  
Max Temperature 32 °F 45 °F 72 °F (1952)
Min Temperature 25 °F 28 °F 0 °F (1958)
Degree Days  
Heating Degree Days 36    
Moisture  
Dew Point 21 °F    
Average Humidity 75    
Maximum Humidity 93    
Minimum Humidity 58    
Precipitation  
Precipitation 0.01 in - - ()
Sea Level Pressure  
Sea Level Pressure 30.12 in    
Wind  
Wind Speed 7 mph (West)    
Max Wind Speed 14 mph    
Max Gust Speed 25 mph    
Visibility 7 miles    
Events Snow    
Averages and records for this station are not official NWS values.
T = Trace of Precipitation, MM = Missing Value Source: NWS Daily Summary

Daily Weather History Graph

Daily Weather History Graph

Search for Another Location

Airport:

Trip Planner

Search our weather history database for the weather conditions in past years. The results will help you decide how hot, cold, wet, or windy it might be!

Date:

Astronomy

Dec. 10, 2013 Rise Set
Actual Time 7:29 AM EST 4:57 PM EST
Civil Twilight 6:59 AM EST 5:27 PM EST
Nautical Twilight 6:26 AM EST 6:01 PM EST
Astronomical Twilight 5:53 AM EST 6:33 PM EST
Moon 12:56 PM EST (12/10) 12:48 AM EST (12/10)
Length of Visible Light 10h 27m
Length of Day
9h 27m
First Quarter, 61% of the Moon is Illuminated
Dec 10
First Quarter
Dec 17
Full
Dec 25
Last Quarter
Jan 1
New
Jan 7
First Quarter

Hourly Weather History & Observations

Time (EST) Temp. Windchill Dew Point Humidity Pressure Visibility Wind Dir Wind Speed Gust Speed Precip Events Conditions
12:53 AM 32.0 °F 28.7 °F 26.1 °F 79% 30.10 in 10.0 mi West 3.5 mph - N/A   Overcast
1:53 AM 32.0 °F 25.6 °F 26.1 °F 79% 30.13 in 10.0 mi West 6.9 mph - N/A   Overcast
2:53 AM 30.9 °F 26.2 °F 25.0 °F 79% 30.11 in 10.0 mi West 4.6 mph - N/A   Overcast
3:53 AM 30.9 °F - 25.0 °F 79% 30.07 in 10.0 mi Calm Calm - N/A   Overcast
4:53 AM 30.9 °F 25.2 °F 24.1 °F 76% 30.10 in 10.0 mi NW 5.8 mph - N/A   Overcast
5:53 AM 30.0 °F 23.2 °F 24.1 °F 79% 30.05 in 8.0 mi NNW 6.9 mph - 0.00 in Snow Light Snow
6:53 AM 30.0 °F 26.5 °F 24.1 °F 79% 30.05 in 10.0 mi West 3.5 mph - 0.00 in   Overcast
7:09 AM 30.2 °F 26.7 °F 24.8 °F 80% 30.02 in 8.0 mi WNW 3.5 mph - N/A   Overcast
7:53 AM 28.9 °F 23.9 °F 25.0 °F 85% 30.04 in 1.2 mi NW 4.6 mph - 0.00 in Snow Light Snow
8:03 AM 28.4 °F - 24.8 °F 86% 30.02 in 0.8 mi Calm Calm - 0.00 in Snow Light Snow
8:27 AM 28.4 °F 22.2 °F 26.6 °F 93% 30.04 in 1.0 mi West 5.8 mph - 0.01 in Snow Light Snow
8:51 AM 28.4 °F 21.2 °F 24.8 °F 86% 30.04 in 2.5 mi WNW 6.9 mph - 0.01 in Snow Light Snow
8:53 AM 28.0 °F 20.8 °F 25.0 °F 88% 30.06 in 2.5 mi WNW 6.9 mph - 0.01 in Snow Light Snow
9:04 AM 28.4 °F 21.2 °F 24.8 °F 86% 30.05 in 3.0 mi West 6.9 mph - 0.00 in Snow Light Snow
9:39 AM 28.4 °F 21.2 °F 24.8 °F 86% 30.06 in 8.0 mi West 6.9 mph - 0.00 in   Overcast
9:46 AM 28.4 °F 20.4 °F 24.8 °F 86% 30.07 in 8.0 mi West 8.1 mph - 0.00 in   Overcast
9:53 AM 28.0 °F 19.3 °F 23.0 °F 81% 30.09 in 8.0 mi West 9.2 mph - 0.00 in   Overcast
10:32 AM 28.4 °F 18.5 °F 21.2 °F 74% 30.09 in 2.0 mi West 11.5 mph - 0.00 in Snow Light Snow
10:41 AM 28.4 °F 17.5 °F 19.4 °F 69% 30.09 in 6.0 mi WNW 13.8 mph 18.4 mph 0.00 in Snow Light Snow
10:53 AM 28.0 °F 19.3 °F 19.9 °F 72% 30.12 in 5.0 mi WNW 9.2 mph - 0.00 in Snow Light Snow
11:41 AM 28.4 °F 20.4 °F 21.2 °F 74% 30.09 in 2.5 mi WNW 8.1 mph - 0.00 in Snow Light Snow
11:50 AM 28.4 °F 21.2 °F 21.2 °F 74% 30.10 in 4.0 mi West 6.9 mph - 0.00 in Snow Light Snow
11:53 AM 28.0 °F 21.7 °F 21.9 °F 78% 30.12 in 4.0 mi West 5.8 mph - 0.00 in Snow Light Snow
12:53 PM 28.0 °F 18.6 °F 21.0 °F 75% 30.12 in 4.0 mi WSW 10.4 mph - 0.00 in Snow Light Snow
1:19 PM 28.4 °F 18.0 °F 21.2 °F 74% 30.10 in 2.0 mi West 12.7 mph 19.6 mph 0.00 in Snow Light Snow
1:35 PM 28.4 °F 18.0 °F 21.2 °F 74% 30.10 in 6.0 mi WSW 12.7 mph - 0.00 in Snow Light Snow
1:53 PM 28.0 °F 19.3 °F 21.0 °F 75% 30.12 in 9.0 mi West 9.2 mph 21.9 mph 0.00 in   Overcast
2:53 PM 28.9 °F 18.6 °F 19.0 °F 67% 30.13 in 10.0 mi West 12.7 mph 23.0 mph N/A   Overcast
3:26 PM 28.4 °F 18.0 °F 17.6 °F 64% 30.12 in 10.0 mi West 12.7 mph 25.3 mph N/A   Mostly Cloudy
3:53 PM 28.9 °F 18.2 °F 18.0 °F 64% 30.14 in 10.0 mi WSW 13.8 mph 21.9 mph N/A   Scattered Clouds
4:53 PM 28.0 °F 17.0 °F 17.1 °F 63% 30.16 in 10.0 mi SW 13.8 mph 20.7 mph N/A   Clear
5:53 PM 27.0 °F 17.3 °F 17.1 °F 66% 30.16 in 10.0 mi SW 10.4 mph - N/A   Clear
6:53 PM 27.0 °F 16.7 °F 16.0 °F 63% 30.19 in 10.0 mi SW 11.5 mph - N/A   Clear
7:53 PM 28.0 °F 19.3 °F 16.0 °F 61% 30.23 in 10.0 mi WSW 9.2 mph - N/A   Clear
8:53 PM 27.0 °F 18.0 °F 15.1 °F 61% 30.26 in 10.0 mi WSW 9.2 mph - N/A   Clear
9:53 PM 27.0 °F 18.0 °F 14.0 °F 58% 30.28 in 10.0 mi WSW 9.2 mph - N/A   Partly Cloudy
10:53 PM 26.1 °F 19.4 °F 12.9 °F 58% 30.28 in 10.0 mi West 5.8 mph - N/A   Clear
11:53 PM 25.0 °F 15.5 °F 12.9 °F 60% 30.30 in 10.0 mi WSW 9.2 mph - N/A   Partly Cloudy